Regional Weather Roundup
Issued by NWS

Home | Current Version | Previous Version | Text Only | Print | Product List | Glossary Off
Versions: 1 2 3 4 5 6 7 8 9 10 11 12 13 14 15 16 17 18 19 20 21 22 23 24 25 26 27 28 29 30 31 32 33 34 35 36 37 38 39 40 41 42 43 44 45 46 47 48 49 50

000
ASUS45 KCYS 261010
RWRWY

WYOMING REGIONAL WEATHER ROUNDUP
NATIONAL WEATHER SERVICE CHEYENNE WY
400 AM MDT SUN MAR 26 2017

NOTE:  "FAIR" INDICATES FEW OR NO CLOUDS BELOW 12,000 FEET
WITH NO SIGNIFICANT WEATHER AND/OR OBSTRUCTIONS TO VISIBILITY.

WYZ001-261100-
YELLOWSTONE NATIONAL PARK

CITY           SKY/WX    TMP DP  RH WIND       PRES   REMARKS
LK YELLOWSTONE   N/A     20  19  96 CALM      29.98S
W YELLOWSTONE  NOT AVBL

$$
WYZ002>013-054>058-071-098>099-261100-
NORTHERN WYOMING

CITY           SKY/WX    TMP DP  RH WIND       PRES   REMARKS
JACKSON        CLOUDY    27  27 100 N3        29.99S
CODY           FAIR      35  28  75 SW3       29.94S
GREYBULL       FAIR      38  35  89 SE3       29.91S
WORLAND        FAIR      39  37  92 SW5       29.91S
SHERIDAN       CLOUDY    38  36  92 NW5       29.93R WCI  34
BUFFALO        CLOUDY    38  34  85 W5        29.92F WCI  34
GILLETTE       CLOUDY    40  37  89 N9        29.90S WCI  34
HULETT         CLOUDY    41  36  81 N7        29.91S
NEWCASTLE      DRIZZLE   41  36  81 N17       29.81F

$$
WYZ014>020-022>026-101>103-261100-
CENTRAL WYOMING

CITY           SKY/WX    TMP DP  RH WIND       PRES   REMARKS
BIG PINEY      FAIR      24  20  84 NW10      29.96F WCI  14
PINEDALE       FAIR      27  23  86 NW10      29.95F WCI  17
DUBOIS         FAIR      28  21  74 N9        29.94F WCI  20
LANDER         CLOUDY    36  34  92 N3        29.92S
RIVERTON       CLOUDY    37  34  89 N5        29.93S WCI  33
CASPER         LGT RAIN  36  35  96 N7        29.89S WCI  30
DOUGLAS        LGT RAIN  39  35  86 NW8       29.87S WCI  33

$$
WYZ021-027>030-104>119-261100-
SOUTHERN WYOMING

CITY           SKY/WX    TMP DP  RH WIND       PRES   REMARKS
EVANSTON       FAIR      26  22  84 SW8       30.00F WCI  18
KEMMERER         N/A     27  23  86 W8        29.98F WCI  18
FORT BRIDGER   FAIR      30  30  99 SW8       30.02F WCI  23
ROCK SPRINGS   CLOUDY    34  29  82 W15       29.96S WCI  24
DIXON          LGT RAIN  38  35  89 W9        29.94S WCI  32
RAWLINS        CLOUDY    37  32  82 W10       29.88S WCI  30
SARATOGA       CLOUDY    36  36 100 W9G16     29.90R WCI  29
LARAMIE        LGT RAIN  34  33  96 N6        29.85F WCI  29
CHEYENNE       MOCLDY    41  34  76 E7        29.82F
TORRINGTON     FAIR      43  31  62 NE7       29.77F
PINE BLUFFS    CLOUDY    43  36  75 N5        29.82F

$$



USA.gov is the U.S. government's official web portal to all federal, state and local government web resources and services.